Regional Weather Roundup
Issued by NWS

Home | Current Version | Previous Version | Text Only | Print | Product List | Glossary Off
Versions: 1 2 3 4 5 6 7 8 9 10 11 12 13 14 15 16 17 18 19 20 21 22 23 24 25 26 27 28 29 30 31 32 33 34 35 36 37 38 39 40 41 42 43 44 45 46 47 48 49 50

000
ASUS43 KLOT 022212
RWRIL

ILLINOIS REGIONAL WEATHER ROUNDUP
NATIONAL WEATHER SERVICE CHICAGO/ROMEOVILLE IL
500 PM CDT SUN AUG 02 2015

NOTE: "FAIR" INDICATES FEW OR NO CLOUDS BELOW 12,000 FEET WITH NO
SIGNIFICANT WEATHER AND/OR OBSTRUCTIONS TO VISIBILITY.

* THESE STATIONS ARE NOT UNDER NWS QUALITY CONTROL. THEY ALSO MAY NOT
  REPORT WEATHER SUCH AS PRECIPITATION OR FOG.

ILZ001-002-007-009-015-016-024-022300-
NORTHWEST ILLINOIS

CITY           SKY/WX    TMP DP  RH WIND       PRES   REMARKS
MOLINE         MOSUNNY   91  72  53 SW14G28   29.73F HX  98
STERLING*      SUNNY     90  73  58 W20G26    29.69F HX  98
SAVANNA*       SUNNY     90  71  53 SW16G24   29.70S HX  95
$$

ILZ003-004-008-010-011-017-018-022300-
NORTH CENTRAL ILLINOIS

CITY           SKY/WX    TMP DP  RH WIND       PRES   REMARKS
ROCKFORD       MOSUNNY   89  70  53 SW17G33   29.68F HX  94
FREEPORT*      SUNNY     87  72  60 SW22G30   29.70F HX  93
ROCHELLE*      SUNNY     87  73  62 SW18G28   29.71F HX  94
DE KALB*       SUNNY     88  73  61 SW23      29.71F HX  95
PERU*          SUNNY     89  68  50 SW25G31   29.74F HX  93
$$

ILZ005-006-012>014-019>023-022300-
NORTHEAST ILLINOIS

CITY           SKY/WX    TMP DP  RH WIND       PRES   REMARKS
CHICAGO-OHARE  MOSUNNY   89  69  51 SW23G35   29.68F HX  93
CHICAGO-MIDWAY MOSUNNY   93  68  43 SW24G32   29.69F HX  97
AURORA         SUNNY     90  69  50 SW23G30   29.71F HX  94
LANSING*       PTSUNNY   89  69  51 SW23G29   29.73F HX  94
JOLIET*        MOSUNNY   91  73  55 SW17G23   29.72F HX  99
WAUKEGAN       SUNNY     89  67  47 SW29G38   29.62F HX  92
DUPAGE AIRPORT SUNNY     88  70  55 SW24G35   29.69F HX  93
KANKAKEE*      SUNNY     89  70  54 SW15G24   29.78F HX  94
WHEELING       SUNNY     91  67  44 SW21G35   29.68F HX  94
MORRIS*        SUNNY     88  72  58 SW22G28   29.72F HX  95
ROMEOVILLE*    MOSUNNY   89  69  51 SW17G30   29.72F HX  93
NORTHERLY ISL    N/A     90  65  43 SW20        N/A  HX  92
$$

LMZ740>746-022300-
SOUTHERN LAKE MICHIGAN

STATION/POSITION SKY/WX   TEMP    WIND        PRES    VSBY  WAVE
                          AIR SEA DIR/SP/G                  HT/PER
                          (F)     (DEG/KT/KT) (MB)    (MI)  (FT/S)
HARRISON CRIB              85     210/ 26/ 35   N/A
BURNHAM HARBOR             90     200/  9/ 22   N/A
CALUMET HARBOR             87     200/ 13/ 16   N/A
BURNS HARBOR               87     210/ 20/ 25 1006.8F
MICHIGAN CITY              86     190/ 18/ 21   N/A
MICHIGAN CITY 6N           83 74  230/ 17/ 25   N/A           3/ 4
ST. JOSEPH                 78 74  240/ 16/ 17   N/A           3/ 4
$$

ILZ025>027-034>036-040-047-049-050-058-095>099-022300-
WEST-CENTRAL ILLINOIS

CITY           SKY/WX    TMP DP  RH WIND       PRES   REMARKS
QUINCY         SUNNY     90  73  57 SW14      29.83F HX  98
GALESBURG*     MOSUNNY   88  73  60 SW18G25   29.78F HX  95
MACOMB*        MOSUNNY   89  72  57 SW13G20   29.82F HX  96
JACKSONVILLE*  SUNNY     91  71  51 SW10      29.84F HX  97
PITTSFIELD*    SUNNY     90  69  50 SW10      29.86S HX  94
$$

ILZ028>032-037-038-041>044-048-051>054-059>061-022300-
CENTRAL ILLINOIS

CITY           SKY/WX    TMP DP  RH WIND       PRES   REMARKS
PONTIAC        SUNNY     89  77  66 SW13G20   29.79F HX 101
BLOOMINGTON    MOSUNNY   89  75  63 SW14G22   29.83F HX  98
DECATUR        MOSUNNY   91  68  46 SW14G24   29.85S HX  95
PEORIA         SUNNY     90  67  46 SW13      29.79F HX  93
LACON*         SUNNY     89  70  53 SW9G20    29.76F HX  94
LINCOLN*       SUNNY     92  69  46 SW9G16    29.81F HX  96
SPRINGFIELD    SUNNY     91  71  51 SW10G21   29.84S HX  97
TAYLORVILLE    SUNNY     88  72  58 SW8G16    29.85F HX  94
$$

ILZ033-039-045-046-055>057-062-063-022300-
EAST-CENTRAL ILLINOIS

CITY           SKY/WX    TMP DP  RH WIND       PRES   REMARKS
CHAMPAIGN      SUNNY     89  70  53 SW13      29.85F HX  94
DANVILLE*      SUNNY     86  72  62 SW12G20   29.82F HX  92
RANTOUL*       SUNNY     87  72  62 SW8       29.83F HX  93
MATTOON        MOSUNNY   89  66  46 SW9       29.86S HX  91
PARIS*         SUNNY     89  70  54 SW10G18   29.86F HX  94
$$

ILZ079-100>102-022300-
SOUTHWEST ILLINOIS

CITY           SKY/WX    TMP DP  RH WIND       PRES   REMARKS
ALTON          MOSUNNY   90  68  48 SW9       29.86F HX  93
BELLEVILLE     SUNNY     93  72  51 SW9       29.85F HX 100
CAHOKIA*       MOSUNNY   95  66  38 S12       29.86S HX  98
SPARTA*        MOSUNNY   91  71  51 S9        29.89F HX  97
$$

ILZ064>066-069>071-074>076-080>082-084>086-088>090-092>094-022300-
SOUTH-CENTRAL ILLINOIS

CITY           SKY/WX    TMP DP  RH WIND       PRES   REMARKS
CARBONDALE     SUNNY     89  71  55 S9        29.89F HX  95
CAIRO*         SUNNY     89  71  56 S7        29.90F HX  95
EFFINGHAM*     SUNNY     92  62  37 S8        29.89S HX  92
MARION         MOSUNNY   90  72  55 S9        29.91F HX  96
MT. VERNON     MOSUNNY   91  70  49 S12G17    29.89S HX  97
CENTRALIA*     SUNNY     88  69  52 S7        29.88F HX  92
SALEM*         MOSUNNY   92  69  46 SW8       29.88S HX  96
METROPOLIS*    MOSUNNY   89  72  57 SW6       29.92S HX  96
$$

ILZ067-068-072-073-078-083-087-091-022300-
SOUTHEAST ILLINOIS

CITY           SKY/WX    TMP DP  RH WIND       PRES   REMARKS
LAWRENCEVILLE  SUNNY     89  70  53 S10       29.89S HX  94
FLORA*         SUNNY     90  68  49 S12       29.88F HX  94
FAIRFIELD*     SUNNY     88  71  57 S8        29.87F HX  94
HARRISBURG*    SUNNY     89  71  54 SW7       29.91F HX  94
ROBINSON*      SUNNY     88  71  57 SW8       29.89S HX  93
CARMI*         SUNNY     87  70  56 S9        29.89F HX  91
$$

ABBREVIATIONS USED IN REMARKS
   TC - TEMPERATURE IN CELSIUS
  WCI - WIND CHILL INDEX
   HX - HEAT INDEX
  VSB - VISIBILITY
$$



USA.gov is the U.S. government's official web portal to all federal, state and local government web resources and services.